Weather History for KTDZ - June, 2013

Change the Weather History Date:

Thursday, June 13, 2013

  Actual Average (KTOL) Record (KTOL)
Temperature  
Mean Temperature 71 °F 69 °F  
Max Temperature 79 °F 80 °F 95 °F (1956)
Min Temperature 64 °F 58 °F 43 °F (1974)
Degree Days  
Heating Degree Days 0 1  
Month to date heating degree days 26  
Since 1 June heating degree days 26  
Since 1 July heating degree days 6136  
Cooling Degree Days 6 5  
Month to date cooling degree days 52  
Year to date cooling degree days 105  
Since 1 June cooling degree days 52  
Growing Degree Days 21 (Base 50)    
Moisture  
Dew Point 61 °F    
Average Humidity 77    
Maximum Humidity 94    
Minimum Humidity 40    
Precipitation  
Precipitation 0.96 in 0.13 in 2.57 in (1981)
Month to date precipitation 1.62  
Year to date precipitation 14.99  
Snow  
Snow 0.00 in 0.00 in - ()
Month to date snowfall 0.0  
Since 1 June snowfall 0.0  
Since 1 July snowfall 37.6  
Snow Depth -    
Sea Level Pressure  
Sea Level Pressure 29.68 in    
Wind  
Wind Speed 12 mph (NW)    
Max Wind Speed 29 mph    
Max Gust Speed 40 mph    
Visibility 7 miles    
Events Rain    
T = Trace of Precipitation, MM = Missing Value Source: NWS Daily Summary

Daily Weather History Graph

Daily Weather History Graph

Search for Another Location

Airport or City:

Trip Planner

Search our weather history database for the weather conditions in past years. The results will help you decide how hot, cold, wet, or windy it might be!

Date:

Astronomy

Jun. 13, 2013 Rise Set
Actual Time 5:59 AM EDT 9:09 PM EDT
Civil Twilight 5:25 AM EDT 9:43 PM EDT
Nautical Twilight 4:41 AM EDT 10:26 PM EDT
Astronomical Twilight 3:49 AM EDT 11:18 PM EDT
Moon 10:37 AM EDT (6/13) No Moon Set
Length of Visible Light 16h 17m
Length of Day
15h 09m
Waxing Crescent, 21% of the Moon is Illuminated
Jun 13
Waxing Crescent
Jun 16
First Quarter
Jun 23
Full
Jun 30
Last Quarter
Jul 8
New

Hourly Weather History & Observations

Time (EDT) Temp. Dew Point Humidity Pressure Visibility Wind Dir Wind Speed Gust Speed Precip Events Conditions
12:38 AM 69.8 °F 66.2 °F 88% 29.60 in 1.5 mi East 10.4 mph 20.7 mph 0.27 in Rain Heavy Rain
12:45 AM 69.8 °F 66.2 °F 88% 29.62 in 0.8 mi WSW 13.8 mph 28.8 mph 0.47 in Rain Heavy Rain
12:48 AM 69.8 °F 66.2 °F 88% 29.62 in 1.0 mi WSW 18.4 mph 28.8 mph 0.51 in Rain Heavy Rain
12:50 AM 68.0 °F 66.2 °F 94% 29.60 in 1.5 mi West 19.6 mph 24.2 mph 0.53 in Rain Heavy Rain
12:53 AM 68.0 °F 66.0 °F 93% 29.59 in 1.8 mi WNW 21.9 mph 29.9 mph 0.56 in Rain Heavy Rain
12:59 AM 68.0 °F 66.2 °F 94% 29.61 in 1.5 mi NW 28.8 mph 40.3 mph 0.10 in Rain Heavy Rain
1:08 AM 68.0 °F 66.2 °F 94% 29.63 in 2.0 mi WNW 17.3 mph 36.8 mph 0.16 in Rain Heavy Rain
1:16 AM 68.0 °F 66.2 °F 94% 29.63 in 4.0 mi WNW 13.8 mph - 0.20 in Rain Heavy Rain
1:53 AM 68.0 °F 66.0 °F 93% 29.60 in 7.0 mi West 5.8 mph - 0.29 in Rain Light Rain
2:37 AM 68.0 °F 66.2 °F 94% 29.58 in 5.0 mi SW 3.5 mph - 0.03 in Rain Light Rain
2:53 AM 66.9 °F 64.9 °F 93% 29.59 in 9.0 mi West 9.2 mph - 0.03 in Rain Light Rain
3:13 AM 66.2 °F 64.4 °F 94% 29.61 in 10.0 mi West 11.5 mph - 0.01 in   Overcast
3:24 AM 66.2 °F 64.4 °F 94% 29.60 in 10.0 mi West 9.2 mph - 0.01 in   Overcast
3:36 AM 66.2 °F 64.4 °F 94% 29.57 in 10.0 mi West 6.9 mph - 0.01 in   Mostly Cloudy
3:53 AM 66.0 °F 64.0 °F 93% 29.54 in 10.0 mi Calm Calm - 0.01 in   Partly Cloudy
4:28 AM 66.2 °F 64.4 °F 94% 29.52 in 9.0 mi ENE 4.6 mph - N/A   Mostly Cloudy
4:53 AM 66.9 °F 64.9 °F 93% 29.55 in 10.0 mi SW 3.5 mph - N/A   Overcast
5:53 AM 66.9 °F 64.9 °F 93% 29.57 in 4.0 mi West 4.6 mph - 0.01 in Rain Light Rain
6:10 AM 66.2 °F 64.4 °F 94% 29.59 in 5.0 mi NW 6.9 mph - 0.00 in Rain Light Rain
6:53 AM 66.0 °F 64.0 °F 93% 29.61 in 6.0 mi North 12.7 mph 20.7 mph 0.06 in Rain Light Rain
7:37 AM 64.4 °F 62.6 °F 94% 29.66 in 5.0 mi North 11.5 mph 21.9 mph 0.00 in   Overcast
7:44 AM 64.4 °F 62.6 °F 94% 29.66 in 5.0 mi North 10.4 mph 19.6 mph 0.00 in   Overcast
7:53 AM 64.9 °F 62.1 °F 90% 29.66 in 5.0 mi North 10.4 mph 20.7 mph 0.00 in Rain Light Rain
8:31 AM 64.4 °F 55.4 °F 73% 29.70 in 10.0 mi NNE 11.5 mph 20.7 mph 0.00 in   Overcast
8:53 AM 64.9 °F 55.9 °F 73% 29.70 in 10.0 mi North 8.1 mph 21.9 mph 0.00 in   Overcast
9:53 AM 64.9 °F 55.9 °F 73% 29.73 in 10.0 mi NNW 11.5 mph - N/A   Overcast
10:53 AM 66.9 °F 57.0 °F 70% 29.74 in 10.0 mi North 10.4 mph - N/A   Overcast
11:53 AM 72.0 °F 57.9 °F 61% 29.75 in 10.0 mi North 9.2 mph 18.4 mph N/A   Clear
12:53 PM 75.0 °F 55.9 °F 51% 29.76 in 10.0 mi NNW 15.0 mph 19.6 mph N/A   Clear
1:53 PM 75.9 °F 54.0 °F 46% 29.76 in 10.0 mi NNW 13.8 mph - N/A   Scattered Clouds
2:53 PM 78.1 °F 53.1 °F 42% 29.78 in 10.0 mi NNW 17.3 mph 23.0 mph N/A   Partly Cloudy
3:53 PM 78.1 °F 52.0 °F 40% 29.80 in 10.0 mi North 11.5 mph 25.3 mph N/A   Partly Cloudy
4:53 PM 78.1 °F 55.0 °F 45% 29.81 in 10.0 mi NNW 11.5 mph 25.3 mph N/A   Mostly Cloudy
5:53 PM 77.0 °F 53.1 °F 43% 29.81 in 10.0 mi North 15.0 mph 21.9 mph N/A   Clear
6:53 PM 77.0 °F 52.0 °F 42% 29.82 in 10.0 mi NNW 13.8 mph 20.7 mph N/A   Partly Cloudy
7:53 PM 75.9 °F 53.1 °F 45% 29.85 in 10.0 mi NNW 10.4 mph - N/A   Partly Cloudy
8:53 PM 72.0 °F 55.9 °F 57% 29.86 in 10.0 mi NNW 9.2 mph - N/A   Clear
9:53 PM 71.1 °F 55.9 °F 59% 29.88 in 10.0 mi NNW 5.8 mph - N/A   Overcast
10:53 PM 70.0 °F 57.0 °F 63% 29.90 in 10.0 mi ENE 4.6 mph - N/A   Overcast
11:53 PM 69.1 °F 57.9 °F 68% 29.91 in 10.0 mi NNE 5.8 mph - N/A   Scattered Clouds